OMA1378 OOMS-OEGS

Flight info

Callsign OMA1378
Flight time 2h 25m
Altitude 30000
Route ITLAK DCT TULBU G652 TOKRA DCT KATIT DCT SITER M440 KSA M321 IVONU Z710 GAS
Aircraft A321/M-SDE3FGHIRWY/LB1

Departure

Time 2026-04-21 17:45
Airport Muscat International Airport (OOMS)

Arrival

Time 2026-04-21 20:11
Airport Prince Naif bin Abdulaziz International Airport (OEGS)
Time Latitude Longitude Altitude Speed Heading
2026-04-21 17:24 23.60030 58.28513 64 ft 0 kts 357°
2026-04-21 17:31 23.60017 58.28514 64 ft 7 kts 358°
2026-04-21 17:31 23.59970 58.28515 64 ft 7 kts 358°
2026-04-21 17:31 23.59924 58.28517 64 ft 7 kts 358°
2026-04-21 17:32 23.59886 58.28536 64 ft 7 kts 284°
2026-04-21 17:32 23.59885 58.28532 64 ft 0 kts 265°
2026-04-21 17:34 23.59884 58.28525 64 ft 3 kts 265°
2026-04-21 17:34 23.59881 58.28484 64 ft 8 kts 265°
2026-04-21 17:35 23.59874 58.28402 64 ft 13 kts 265°
2026-04-21 17:35 23.59864 58.28282 64 ft 18 kts 265°
2026-04-21 17:35 23.59851 58.28142 64 ft 19 kts 264°
2026-04-21 17:35 23.59839 58.27994 64 ft 19 kts 265°
2026-04-21 17:36 23.59828 58.27873 64 ft 10 kts 254°
2026-04-21 17:36 23.59778 58.27831 64 ft 10 kts 199°
2026-04-21 17:36 23.59701 58.27799 64 ft 14 kts 202°
2026-04-21 17:36 23.59598 58.27757 64 ft 16 kts 201°
2026-04-21 17:37 23.59542 58.27702 64 ft 10 kts 263°
2026-04-21 17:37 23.59533 58.27604 64 ft 16 kts 266°
2026-04-21 17:37 23.59523 58.27463 64 ft 20 kts 265°
2026-04-21 17:37 23.59539 58.27382 64 ft 9 kts 343°
2026-04-21 17:38 23.59617 58.27374 64 ft 14 kts 357°
2026-04-21 17:38 23.59737 58.27362 64 ft 20 kts 354°
2026-04-21 17:38 23.59891 58.27348 64 ft 23 kts 355°
2026-04-21 17:38 23.60051 58.27334 64 ft 23 kts 355°
2026-04-21 17:39 23.60205 58.27319 64 ft 22 kts 354°
2026-04-21 17:39 23.60351 58.27304 64 ft 20 kts 354°
2026-04-21 17:39 23.60437 58.27311 64 ft 10 kts 50°
2026-04-21 17:39 23.60450 58.27391 64 ft 13 kts 84°
2026-04-21 17:40 23.60460 58.27510 64 ft 18 kts 85°
2026-04-21 17:40 23.60472 58.27668 64 ft 24 kts 85°
2026-04-21 17:40 23.60489 58.27866 64 ft 28 kts 84°
2026-04-21 17:40 23.60506 58.28077 64 ft 28 kts 84°
2026-04-21 17:41 23.60524 58.28285 64 ft 27 kts 84°
2026-04-21 17:41 23.60540 58.28486 64 ft 26 kts 86°
2026-04-21 17:41 23.60554 58.28679 64 ft 25 kts 84°
2026-04-21 17:41 23.60569 58.28864 64 ft 24 kts 85°
2026-04-21 17:42 23.60586 58.29053 64 ft 26 kts 86°
2026-04-21 17:42 23.60600 58.29247 64 ft 25 kts 84°
2026-04-21 17:42 23.60615 58.29435 64 ft 21 kts 85°
2026-04-21 17:42 23.60623 58.29546 64 ft 12 kts 85°
2026-04-21 17:43 23.60652 58.29613 64 ft 10 kts 24°
2026-04-21 17:43 23.60719 58.29616 64 ft 10 kts 355°
2026-04-21 17:43 23.60790 58.29609 64 ft 10 kts 355°
2026-04-21 17:43 23.60855 58.29598 64 ft 9 kts 346°
2026-04-21 17:44 23.60901 58.29576 64 ft 5 kts 298°
2026-04-21 17:44 23.60899 58.29534 64 ft 7 kts 263°
2026-04-21 17:44 23.60875 58.29311 64 ft 59 kts 263°
2026-04-21 17:44 23.60821 58.28663 64 ft 111 kts 265°
2026-04-21 17:45 23.60740 58.27656 64 ft 152 kts 265°
2026-04-21 17:45 23.60643 58.26446 396 ft 160 kts 265°
2026-04-21 17:45 23.60526 58.25211 935 ft 172 kts 264°
2026-04-21 17:45 23.60377 58.23760 1091 ft 220 kts 263°
2026-04-21 17:46 23.60194 58.21904 1393 ft 260 kts 263°
2026-04-21 17:46 23.60023 58.19989 2724 ft 253 kts 264°
2026-04-21 17:46 23.59877 58.18017 3471 ft 264 kts 264°
2026-04-21 17:46 23.59730 58.16023 4441 ft 265 kts 264°
2026-04-21 17:47 23.59579 58.14001 5329 ft 268 kts 265°
2026-04-21 17:47 23.59426 58.11979 6279 ft 268 kts 265°
2026-04-21 17:47 23.59271 58.09942 7150 ft 271 kts 265°
2026-04-21 17:47 23.59115 58.07904 7962 ft 275 kts 266°
2026-04-21 17:48 23.58998 58.06495 8483 ft 279 kts 264°
2026-04-21 17:48 23.58190 58.03793 9410 ft 291 kts 243°
2026-04-21 17:48 23.56959 58.01996 10094 ft 299 kts 233°
2026-04-21 17:48 23.55591 58.00184 10392 ft 322 kts 232°
2026-04-21 17:49 23.54109 57.98262 10622 ft 342 kts 232°
2026-04-21 17:49 23.52570 57.96297 11561 ft 339 kts 231°
2026-04-21 17:49 23.51029 57.94340 12380 ft 339 kts 231°
2026-04-21 17:49 23.49480 57.92380 13127 ft 342 kts 231°
2026-04-21 17:50 23.47938 57.90433 13857 ft 344 kts 231°
2026-04-21 17:50 23.46363 57.88448 14568 ft 347 kts 231°
2026-04-21 17:50 23.44778 57.86453 15259 ft 349 kts 231°
2026-04-21 17:50 23.43180 57.84444 15930 ft 352 kts 230°
2026-04-21 17:51 23.41566 57.82416 16578 ft 355 kts 230°
2026-04-21 17:51 23.39941 57.80377 17203 ft 358 kts 230°
2026-04-21 17:51 23.38316 57.78338 17805 ft 361 kts 230°
2026-04-21 17:51 23.36660 57.76263 18397 ft 364 kts 230°
2026-04-21 17:52 23.34990 57.74172 19018 ft 366 kts 230°
2026-04-21 17:52 23.33309 57.72069 19597 ft 369 kts 230°
2026-04-21 17:52 23.31615 57.69950 20172 ft 371 kts 230°
2026-04-21 17:52 23.29915 57.67824 20722 ft 374 kts 230°
2026-04-21 17:53 23.28204 57.65684 21244 ft 376 kts 230°
2026-04-21 17:53 23.26475 57.63522 21761 ft 379 kts 231°
2026-04-21 17:53 23.24738 57.61352 22248 ft 382 kts 231°
2026-04-21 17:53 23.23010 57.59193 22715 ft 384 kts 231°
2026-04-21 17:54 23.21247 57.56991 23161 ft 387 kts 231°
2026-04-21 17:54 23.19468 57.54769 23608 ft 390 kts 231°
2026-04-21 17:54 23.17681 57.52538 24064 ft 392 kts 231°
2026-04-21 17:54 23.15885 57.50296 24485 ft 394 kts 231°
2026-04-21 17:55 23.14072 57.48035 24905 ft 396 kts 231°
2026-04-21 17:55 23.12254 57.45768 25301 ft 398 kts 231°
2026-04-21 17:55 23.10431 57.43497 25684 ft 401 kts 231°
2026-04-21 17:55 23.08613 57.41232 26047 ft 403 kts 230°
2026-04-21 17:56 23.06771 57.38939 26400 ft 405 kts 230°
2026-04-21 17:56 23.04913 57.36627 26742 ft 407 kts 230°
2026-04-21 17:56 23.03041 57.34298 27094 ft 409 kts 230°
2026-04-21 17:56 23.01166 57.31966 27441 ft 411 kts 230°
2026-04-21 17:57 22.99386 57.29531 27760 ft 412 kts 237°
2026-04-21 17:57 22.97947 57.26841 28081 ft 413 kts 243°
2026-04-21 17:57 22.96621 57.24063 28377 ft 415 kts 243°
2026-04-21 17:57 22.95305 57.21274 28663 ft 417 kts 243°
2026-04-21 17:58 22.93995 57.18485 28939 ft 419 kts 243°
2026-04-21 17:58 22.92675 57.15663 29204 ft 421 kts 243°
2026-04-21 17:58 22.91349 57.12823 29463 ft 422 kts 243°
2026-04-21 17:58 22.90022 57.09974 29706 ft 424 kts 243°
2026-04-21 17:59 22.88687 57.07106 29809 ft 424 kts 243°
2026-04-21 17:59 22.87376 57.04286 29836 ft 426 kts 244°
2026-04-21 17:59 22.84682 56.98490 29845 ft 432 kts 244°
2026-04-21 18:00 22.81963 56.92679 29845 ft 432 kts 243°
2026-04-21 18:00 22.79184 56.86901 29845 ft 432 kts 243°
2026-04-21 18:01 22.76421 56.81158 29845 ft 432 kts 243°
2026-04-21 18:01 22.73647 56.75390 29848 ft 431 kts 243°
2026-04-21 18:02 22.70872 56.69622 29850 ft 431 kts 243°
2026-04-21 18:02 22.68096 56.63854 29852 ft 431 kts 243°
2026-04-21 18:03 22.65326 56.58104 29853 ft 431 kts 243°
2026-04-21 18:03 22.62569 56.52385 29855 ft 431 kts 243°
2026-04-21 18:04 22.59787 56.46622 29862 ft 431 kts 243°
2026-04-21 18:04 22.57012 56.40876 29865 ft 431 kts 243°
2026-04-21 18:05 22.54225 56.35131 29867 ft 431 kts 243°
2026-04-21 18:05 22.51432 56.29388 29868 ft 431 kts 243°
2026-04-21 18:06 22.48649 56.23665 29865 ft 435 kts 244°
2026-04-21 18:06 22.45833 56.17867 29864 ft 434 kts 244°
2026-04-21 18:07 22.43022 56.12083 29867 ft 434 kts 244°
2026-04-21 18:07 22.40224 56.06328 29870 ft 434 kts 244°
2026-04-21 18:08 22.37407 56.00550 29871 ft 434 kts 244°
2026-04-21 18:08 22.34568 55.94777 29871 ft 434 kts 244°
2026-04-21 18:09 22.31731 55.89006 29872 ft 434 kts 244°
2026-04-21 18:09 22.28912 55.83274 29872 ft 434 kts 244°
2026-04-21 18:10 22.26072 55.77501 29872 ft 434 kts 244°
2026-04-21 18:10 22.23240 55.71742 29873 ft 434 kts 244°
2026-04-21 18:11 22.20405 55.65972 29874 ft 434 kts 244°
2026-04-21 18:11 22.17692 55.60192 29874 ft 432 kts 251°
2026-04-21 18:12 22.16934 55.57071 29876 ft 430 kts 263°
2026-04-21 18:12 22.16827 55.53853 29877 ft 427 kts 275°
2026-04-21 18:12 22.17850 55.47541 29877 ft 424 kts 282°
2026-04-21 18:13 22.19154 55.41367 29877 ft 423 kts 284°
2026-04-21 18:13 22.20533 55.35193 29877 ft 423 kts 284°
2026-04-21 18:14 22.22607 55.25984 29871 ft 421 kts 284°
2026-04-21 18:15 22.23768 55.20831 29871 ft 421 kts 284°
2026-04-21 18:15 22.25143 55.14727 29871 ft 421 kts 284°
2026-04-21 18:16 22.26526 55.08582 29871 ft 421 kts 284°
2026-04-21 18:16 22.27905 55.02443 29870 ft 420 kts 284°
2026-04-21 18:17 22.29281 54.96302 29870 ft 420 kts 284°
2026-04-21 18:17 22.30646 54.90204 29869 ft 420 kts 284°
2026-04-21 18:18 22.32017 54.84063 29867 ft 420 kts 284°
2026-04-21 18:18 22.33387 54.77919 29865 ft 420 kts 284°
2026-04-21 18:19 22.34753 54.71779 29862 ft 420 kts 284°
2026-04-21 18:19 22.36117 54.65632 29859 ft 420 kts 284°
2026-04-21 18:20 22.37470 54.59528 29855 ft 420 kts 284°
2026-04-21 18:20 22.38828 54.53387 29851 ft 419 kts 284°
2026-04-21 18:21 22.40181 54.47259 29844 ft 418 kts 284°
2026-04-21 18:21 22.41527 54.41148 29839 ft 418 kts 284°
2026-04-21 18:22 22.42864 54.35064 29835 ft 418 kts 283°
2026-04-21 18:22 22.44204 54.28957 29833 ft 418 kts 283°
2026-04-21 18:23 22.45544 54.22839 29830 ft 417 kts 283°
2026-04-21 18:23 22.46880 54.16728 29828 ft 417 kts 283°
2026-04-21 18:24 22.48206 54.10651 29827 ft 417 kts 283°
2026-04-21 18:24 22.49536 54.04544 29826 ft 417 kts 283°
2026-04-21 18:25 22.50863 53.98439 29820 ft 415 kts 283°
2026-04-21 18:25 22.52183 53.92353 29816 ft 415 kts 283°
2026-04-21 18:26 22.53491 53.86306 29815 ft 415 kts 283°
2026-04-21 18:26 22.54807 53.80214 29815 ft 415 kts 283°
2026-04-21 18:27 22.56117 53.74139 29815 ft 415 kts 283°
2026-04-21 18:27 22.57427 53.68053 29815 ft 415 kts 283°
2026-04-21 18:28 22.58726 53.62005 29815 ft 415 kts 283°
2026-04-21 18:28 22.60032 53.55913 29815 ft 415 kts 283°
2026-04-21 18:29 22.61338 53.49811 29815 ft 415 kts 282°
2026-04-21 18:29 22.62633 53.43752 29815 ft 415 kts 282°
2026-04-21 18:30 22.63931 53.37660 29815 ft 415 kts 282°
2026-04-21 18:30 22.65230 53.31551 29815 ft 415 kts 282°
2026-04-21 18:31 22.66525 53.25448 29815 ft 415 kts 282°
2026-04-21 18:31 22.67809 53.19387 29815 ft 415 kts 282°
2026-04-21 18:32 22.69098 53.13289 29815 ft 415 kts 282°
2026-04-21 18:32 22.70383 53.07201 29815 ft 415 kts 282°
2026-04-21 18:33 22.71669 53.01096 29815 ft 415 kts 282°
2026-04-21 18:33 22.72950 52.95002 29815 ft 414 kts 282°
2026-04-21 18:34 22.74219 52.88948 29815 ft 414 kts 282°
2026-04-21 18:34 22.75497 52.82845 29815 ft 414 kts 282°
2026-04-21 18:35 22.76554 52.77786 29815 ft 414 kts 282°
2026-04-21 18:35 22.78032 52.70698 29815 ft 414 kts 282°
2026-04-21 18:36 22.79296 52.64620 29815 ft 413 kts 282°
2026-04-21 18:36 22.80559 52.58539 29815 ft 413 kts 282°
2026-04-21 18:37 22.81819 52.52458 29815 ft 413 kts 282°
2026-04-21 18:37 22.83358 52.46493 29816 ft 410 kts 290°
2026-04-21 18:38 22.85476 52.40782 29816 ft 411 kts 291°
2026-04-21 18:38 22.87700 52.35078 29815 ft 411 kts 291°
2026-04-21 18:39 22.89943 52.29377 29815 ft 411 kts 291°
2026-04-21 18:39 22.92192 52.23670 29815 ft 410 kts 291°
2026-04-21 18:40 22.94435 52.17979 29815 ft 410 kts 291°
2026-04-21 18:40 22.96302 52.13241 29815 ft 410 kts 291°
2026-04-21 18:41 22.98916 52.06600 29815 ft 410 kts 291°
2026-04-21 18:41 23.01140 52.00940 29815 ft 410 kts 291°
2026-04-21 18:42 23.03382 51.95231 29815 ft 410 kts 291°
2026-04-21 18:42 23.05621 51.89519 29815 ft 410 kts 291°
2026-04-21 18:43 23.07843 51.83844 29815 ft 410 kts 291°
2026-04-21 18:43 23.10073 51.78142 29815 ft 410 kts 291°
2026-04-21 18:44 23.12304 51.72429 29815 ft 410 kts 291°
2026-04-21 18:44 23.14531 51.66722 29815 ft 410 kts 291°
2026-04-21 18:45 23.16752 51.61021 29815 ft 409 kts 291°
2026-04-21 18:45 23.18956 51.55354 29815 ft 409 kts 291°
2026-04-21 18:46 23.21169 51.49660 29815 ft 408 kts 291°
2026-04-21 18:46 23.23376 51.43975 29815 ft 407 kts 290°
2026-04-21 18:47 23.25576 51.38296 29815 ft 407 kts 290°
2026-04-21 18:47 23.27763 51.32645 29815 ft 406 kts 290°
2026-04-21 18:48 23.29954 51.26977 29815 ft 406 kts 290°
2026-04-21 18:48 23.32146 51.21299 29815 ft 406 kts 290°
2026-04-21 18:49 23.34316 51.15672 29815 ft 406 kts 290°
2026-04-21 18:49 23.36147 51.10917 29815 ft 406 kts 290°
2026-04-21 18:50 23.38691 51.04306 29815 ft 407 kts 290°
2026-04-21 18:50 23.40867 50.98642 29818 ft 406 kts 290°
2026-04-21 18:51 23.43054 50.92940 29826 ft 406 kts 290°
2026-04-21 18:51 23.45216 50.87295 29826 ft 406 kts 290°
2026-04-21 18:52 23.47394 50.81605 29828 ft 407 kts 290°
2026-04-21 18:52 23.49575 50.75899 29830 ft 407 kts 290°
2026-04-21 18:53 23.51756 50.70185 29827 ft 412 kts 290°
2026-04-21 18:53 23.53956 50.64416 29829 ft 412 kts 290°
2026-04-21 18:54 23.56156 50.58637 29831 ft 412 kts 290°
2026-04-21 18:54 23.58340 50.52893 29834 ft 412 kts 290°
2026-04-21 18:55 23.60176 50.48058 29847 ft 410 kts 290°
2026-04-21 18:55 23.62708 50.41379 29862 ft 410 kts 290°
2026-04-21 18:56 23.64885 50.35630 29865 ft 410 kts 290°
2026-04-21 18:56 23.67048 50.29910 29867 ft 410 kts 290°
2026-04-21 18:57 23.69222 50.24155 29869 ft 410 kts 290°
2026-04-21 18:57 23.71397 50.18389 29871 ft 410 kts 290°
2026-04-21 18:58 23.73569 50.12623 29872 ft 411 kts 290°
2026-04-21 18:58 23.75728 50.06883 29873 ft 411 kts 290°
2026-04-21 18:59 23.77902 50.01098 29873 ft 412 kts 290°
2026-04-21 18:59 23.80070 49.95319 29876 ft 411 kts 290°
2026-04-21 19:00 23.82224 49.89571 29876 ft 411 kts 290°
2026-04-21 19:00 23.84390 49.83783 29876 ft 411 kts 290°
2026-04-21 19:01 23.86547 49.78011 29876 ft 410 kts 290°
2026-04-21 19:01 23.88341 49.73202 29877 ft 410 kts 290°
2026-04-21 19:02 23.90490 49.67438 29877 ft 409 kts 290°
2026-04-21 19:02 23.92635 49.61676 29877 ft 408 kts 290°
2026-04-21 19:03 23.94757 49.55967 29877 ft 407 kts 290°
2026-04-21 19:03 23.96888 49.50227 29877 ft 407 kts 290°
2026-04-21 19:04 23.99018 49.44482 29877 ft 406 kts 289°
2026-04-21 19:04 24.01141 49.38750 29872 ft 407 kts 289°
2026-04-21 19:05 24.03246 49.33058 29870 ft 406 kts 289°
2026-04-21 19:05 24.05359 49.27333 29871 ft 405 kts 289°
2026-04-21 19:06 24.07466 49.21620 29871 ft 405 kts 289°
2026-04-21 19:06 24.09570 49.15909 29872 ft 404 kts 289°
2026-04-21 19:07 24.11673 49.10190 29872 ft 404 kts 289°
2026-04-21 19:07 24.13763 49.04502 29873 ft 404 kts 289°
2026-04-21 19:08 24.15860 48.98784 29872 ft 403 kts 289°
2026-04-21 19:08 24.17937 48.93113 29872 ft 403 kts 289°
2026-04-21 19:09 24.19887 48.87363 29871 ft 402 kts 287°
2026-04-21 19:09 24.21789 48.81585 29869 ft 402 kts 287°
2026-04-21 19:10 24.23689 48.75847 29868 ft 402 kts 287°
2026-04-21 19:10 24.25596 48.70100 29866 ft 401 kts 287°
2026-04-21 19:11 24.27504 48.64357 29865 ft 401 kts 287°
2026-04-21 19:11 24.29415 48.58607 29864 ft 400 kts 287°
2026-04-21 19:12 24.31318 48.52875 29863 ft 400 kts 287°
2026-04-21 19:12 24.33205 48.47185 29870 ft 397 kts 287°
2026-04-21 19:13 24.35095 48.41479 29874 ft 397 kts 287°
2026-04-21 19:13 24.36978 48.35786 29874 ft 397 kts 287°
2026-04-21 19:14 24.38847 48.30131 29875 ft 395 kts 287°
2026-04-21 19:14 24.40711 48.24480 29875 ft 393 kts 287°
2026-04-21 19:15 24.42573 48.18827 29874 ft 393 kts 287°
2026-04-21 19:15 24.44421 48.13208 29874 ft 393 kts 287°
2026-04-21 19:16 24.46280 48.07551 29874 ft 393 kts 287°
2026-04-21 19:16 24.48135 48.01895 29875 ft 393 kts 287°
2026-04-21 19:17 24.50913 47.93413 29875 ft 393 kts 287°
2026-04-21 19:17 24.52754 47.87781 29875 ft 393 kts 287°
2026-04-21 19:18 24.54598 47.82135 29883 ft 392 kts 287°
2026-04-21 19:18 24.56567 47.76575 29884 ft 393 kts 289°
2026-04-21 19:19 24.58671 47.71025 29884 ft 393 kts 289°
2026-04-21 19:19 24.60778 47.65494 29884 ft 393 kts 289°
2026-04-21 19:20 24.62893 47.59950 29884 ft 393 kts 289°
2026-04-21 19:20 24.65009 47.54406 29884 ft 393 kts 289°
2026-04-21 19:21 24.67129 47.48851 29876 ft 394 kts 289°
2026-04-21 19:21 24.69233 47.43332 29875 ft 394 kts 289°
2026-04-21 19:22 24.71376 47.37697 29903 ft 402 kts 290°
2026-04-21 19:22 24.73522 47.32062 29913 ft 397 kts 290°
2026-04-21 19:23 24.75658 47.26445 29913 ft 398 kts 290°
2026-04-21 19:23 24.77792 47.20823 29911 ft 397 kts 290°
2026-04-21 19:24 24.79907 47.15243 29909 ft 397 kts 290°
2026-04-21 19:24 24.82033 47.09628 29906 ft 397 kts 290°
2026-04-21 19:25 24.84143 47.04045 29904 ft 396 kts 290°
2026-04-21 19:25 24.86262 46.98434 29903 ft 396 kts 289°
2026-04-21 19:26 24.88372 46.92835 29904 ft 396 kts 289°
2026-04-21 19:26 24.90484 46.87225 29908 ft 396 kts 290°
2026-04-21 19:27 24.92590 46.81624 29912 ft 394 kts 289°
2026-04-21 19:27 24.94681 46.76056 29912 ft 392 kts 289°
2026-04-21 19:28 24.96749 46.70538 29909 ft 391 kts 289°
2026-04-21 19:28 24.98587 46.64917 29909 ft 389 kts 281°
2026-04-21 19:29 24.99249 46.59003 29913 ft 389 kts 274°
2026-04-21 19:29 24.99719 46.53088 29917 ft 391 kts 274°
2026-04-21 19:30 25.00171 46.47102 29920 ft 391 kts 274°
2026-04-21 19:30 25.00609 46.41115 29919 ft 392 kts 274°
2026-04-21 19:31 25.01040 46.35123 29915 ft 391 kts 274°
2026-04-21 19:31 25.01461 46.29175 29907 ft 390 kts 274°
2026-04-21 19:32 25.01880 46.23213 29899 ft 389 kts 274°
2026-04-21 19:32 25.02294 46.17264 29890 ft 388 kts 274°
2026-04-21 19:33 25.02703 46.11338 29883 ft 387 kts 274°
2026-04-21 19:33 25.03107 46.05450 29879 ft 386 kts 274°
2026-04-21 19:34 25.03510 45.99530 29877 ft 386 kts 273°
2026-04-21 19:34 25.03908 45.93656 29877 ft 386 kts 273°
2026-04-21 19:35 25.04506 45.84773 29877 ft 386 kts 273°
2026-04-21 19:36 25.04900 45.78870 29878 ft 386 kts 273°
2026-04-21 19:36 25.05297 45.72996 29879 ft 386 kts 274°
2026-04-21 19:37 25.06325 45.67176 29881 ft 388 kts 284°
2026-04-21 19:37 25.08367 45.61643 29886 ft 390 kts 291°
2026-04-21 19:38 25.10669 45.56212 29892 ft 390 kts 291°
2026-04-21 19:38 25.12601 45.51708 29895 ft 390 kts 292°
2026-04-21 19:39 25.15318 45.45420 29898 ft 390 kts 292°
2026-04-21 19:39 25.17658 45.40025 29901 ft 390 kts 292°
2026-04-21 19:40 25.20004 45.34620 29904 ft 390 kts 292°
2026-04-21 19:40 25.22339 45.29243 29905 ft 389 kts 292°
2026-04-21 19:41 25.24672 45.23866 29907 ft 389 kts 292°
2026-04-21 19:41 25.27016 45.18460 29908 ft 389 kts 292°
2026-04-21 19:42 25.29353 45.13065 29909 ft 389 kts 292°
2026-04-21 19:42 25.31682 45.07684 29909 ft 381 kts 292°
2026-04-21 19:43 25.33970 45.02383 29742 ft 389 kts 292°
2026-04-21 19:43 25.35139 44.99675 29491 ft 390 kts 292°
2026-04-21 19:43 25.36297 44.96994 29244 ft 391 kts 292°
2026-04-21 19:43 25.37471 44.94272 28993 ft 392 kts 292°
2026-04-21 19:44 25.38646 44.91547 28743 ft 393 kts 292°
2026-04-21 19:44 25.39827 44.88807 28492 ft 394 kts 292°
2026-04-21 19:44 25.41008 44.86064 28241 ft 395 kts 292°
2026-04-21 19:44 25.42178 44.83346 27994 ft 397 kts 292°
2026-04-21 19:45 25.43366 44.80584 27744 ft 398 kts 292°
2026-04-21 19:45 25.44560 44.77807 27510 ft 399 kts 292°
2026-04-21 19:45 25.45753 44.75030 27202 ft 401 kts 292°
2026-04-21 19:45 25.46957 44.72229 26780 ft 402 kts 292°
2026-04-21 19:46 25.48160 44.69424 26365 ft 404 kts 292°
2026-04-21 19:46 25.49368 44.66608 25945 ft 406 kts 292°
2026-04-21 19:46 25.50558 44.63838 25564 ft 396 kts 291°
2026-04-21 19:46 25.51744 44.61122 25138 ft 385 kts 293°
2026-04-21 19:47 25.53111 44.58591 24710 ft 379 kts 300°
2026-04-21 19:47 25.54715 44.56340 24287 ft 374 kts 307°
2026-04-21 19:47 25.56534 44.54305 23855 ft 368 kts 310°
2026-04-21 19:47 25.58388 44.52330 23038 ft 372 kts 312°
2026-04-21 19:48 25.60482 44.50593 22413 ft 377 kts 320°
2026-04-21 19:48 25.62645 44.48960 21644 ft 376 kts 317°
2026-04-21 19:48 25.64746 44.47246 21141 ft 371 kts 316°
2026-04-21 19:48 25.66800 44.45552 20714 ft 365 kts 316°
2026-04-21 19:49 25.68819 44.43883 20296 ft 359 kts 316°
2026-04-21 19:49 25.70782 44.42259 19890 ft 354 kts 316°
2026-04-21 19:49 25.72742 44.40636 19487 ft 349 kts 315°
2026-04-21 19:49 25.74680 44.39034 19089 ft 344 kts 315°
2026-04-21 19:50 25.75949 44.37982 18829 ft 344 kts 315°
2026-04-21 19:50 25.78520 44.35848 18305 ft 344 kts 315°
2026-04-21 19:50 25.79788 44.34796 18047 ft 343 kts 315°
2026-04-21 19:50 25.81702 44.33207 17658 ft 341 kts 315°
2026-04-21 19:51 25.83596 44.31635 17273 ft 339 kts 315°
2026-04-21 19:51 25.85484 44.30067 16889 ft 337 kts 315°
2026-04-21 19:51 25.87330 44.28535 16514 ft 335 kts 315°
2026-04-21 19:51 25.89191 44.26989 16135 ft 333 kts 315°
2026-04-21 19:52 25.91039 44.25455 15759 ft 331 kts 315°
2026-04-21 19:52 25.92877 44.23928 15385 ft 329 kts 316°
2026-04-21 19:52 25.94707 44.22409 15071 ft 326 kts 316°
2026-04-21 19:52 25.96528 44.20897 14970 ft 327 kts 316°
2026-04-21 19:53 25.98346 44.19386 14944 ft 327 kts 316°
2026-04-21 19:53 26.00174 44.17868 14937 ft 327 kts 316°
2026-04-21 19:53 26.01998 44.16352 14935 ft 327 kts 316°
2026-04-21 19:53 26.03802 44.14854 14935 ft 327 kts 316°
2026-04-21 19:54 26.05625 44.13339 14934 ft 327 kts 316°
2026-04-21 19:54 26.07449 44.11823 14866 ft 328 kts 316°
2026-04-21 19:54 26.09281 44.10302 14567 ft 325 kts 316°
2026-04-21 19:54 26.11097 44.08795 14202 ft 323 kts 316°
2026-04-21 19:55 26.12876 44.07318 13840 ft 321 kts 316°
2026-04-21 19:55 26.14659 44.05836 13476 ft 319 kts 316°
2026-04-21 19:55 26.16457 44.04342 13138 ft 319 kts 316°
2026-04-21 19:55 26.18217 44.02878 12752 ft 320 kts 316°
2026-04-21 19:56 26.19999 44.01398 12388 ft 316 kts 316°
2026-04-21 19:56 26.21752 43.99943 12029 ft 312 kts 316°
2026-04-21 19:56 26.23489 43.98502 11673 ft 309 kts 316°
2026-04-21 19:56 26.25213 43.97069 11320 ft 308 kts 316°
2026-04-21 19:57 26.26922 43.95650 10970 ft 306 kts 317°
2026-04-21 19:57 26.28616 43.94244 10623 ft 301 kts 317°
2026-04-21 19:57 26.30291 43.92854 10277 ft 298 kts 317°
2026-04-21 19:57 26.31915 43.91508 10067 ft 290 kts 317°
2026-04-21 19:58 26.33505 43.90194 10009 ft 282 kts 316°
2026-04-21 19:58 26.35080 43.88886 9995 ft 281 kts 316°
2026-04-21 19:58 26.36650 43.87582 9992 ft 281 kts 316°
2026-04-21 19:58 26.38219 43.86279 9991 ft 281 kts 316°
2026-04-21 19:59 26.39787 43.84976 9972 ft 281 kts 316°
2026-04-21 19:59 26.41369 43.83659 9552 ft 286 kts 317°
2026-04-21 19:59 26.42978 43.82316 9005 ft 291 kts 317°
2026-04-21 19:59 26.44595 43.80965 8461 ft 296 kts 317°
2026-04-21 20:00 26.46255 43.79578 7907 ft 301 kts 318°
2026-04-21 20:00 26.47942 43.78168 7347 ft 305 kts 319°
2026-04-21 20:00 26.49639 43.76751 6785 ft 302 kts 319°
2026-04-21 20:00 26.51308 43.75360 6234 ft 297 kts 320°
2026-04-21 20:01 26.52939 43.74002 5853 ft 288 kts 320°
2026-04-21 20:01 26.54531 43.72678 5616 ft 282 kts 320°
2026-04-21 20:01 26.56032 43.71313 5378 ft 275 kts 309°
2026-04-21 20:01 26.56978 43.69494 5146 ft 269 kts 285°
2026-04-21 20:02 26.57147 43.67466 4924 ft 258 kts 260°
2026-04-21 20:02 26.56584 43.65624 4811 ft 245 kts 243°
2026-04-21 20:02 26.55852 43.63961 4697 ft 237 kts 241°
2026-04-21 20:02 26.55128 43.62345 4579 ft 228 kts 241°
2026-04-21 20:03 26.54431 43.60793 4503 ft 217 kts 241°
2026-04-21 20:03 26.53774 43.59328 4499 ft 202 kts 241°
2026-04-21 20:03 26.53174 43.57990 4457 ft 187 kts 241°
2026-04-21 20:03 26.52585 43.56676 4505 ft 188 kts 241°
2026-04-21 20:04 26.52011 43.55401 4484 ft 187 kts 240°
2026-04-21 20:04 26.51293 43.54203 4457 ft 184 kts 218°
2026-04-21 20:04 26.50124 43.53673 4495 ft 185 kts 185°
2026-04-21 20:04 26.48879 43.54014 4487 ft 189 kts 151°
2026-04-21 20:05 26.48011 43.55125 4491 ft 197 kts 117°
2026-04-21 20:05 26.47830 43.56666 4507 ft 213 kts 85°
2026-04-21 20:05 26.48360 43.58285 4536 ft 231 kts 67°
2026-04-21 20:05 26.48999 43.59923 4488 ft 233 kts 78°
2026-04-21 20:06 26.48987 43.61698 4488 ft 228 kts 107°
2026-04-21 20:06 26.48327 43.63290 4510 ft 228 kts 122°
2026-04-21 20:06 26.47521 43.64846 4498 ft 234 kts 123°
2026-04-21 20:06 26.46699 43.66424 4492 ft 235 kts 123°
2026-04-21 20:07 26.45727 43.67878 4488 ft 232 kts 137°
2026-04-21 20:07 26.44481 43.69014 4492 ft 231 kts 147°
2026-04-21 20:07 26.43168 43.69934 4485 ft 217 kts 152°
2026-04-21 20:07 26.41926 43.70715 4427 ft 194 kts 153°
2026-04-21 20:08 26.40775 43.71402 4162 ft 182 kts 154°
2026-04-21 20:08 26.39697 43.72029 3920 ft 165 kts 155°
2026-04-21 20:08 26.38721 43.72591 3713 ft 158 kts 155°
2026-04-21 20:08 26.37753 43.73146 3504 ft 155 kts 155°
2026-04-21 20:09 26.36799 43.73691 3299 ft 154 kts 155°
2026-04-21 20:09 26.35846 43.74235 3099 ft 154 kts 154°
2026-04-21 20:09 26.34881 43.74777 2895 ft 154 kts 150°
2026-04-21 20:09 26.33932 43.75323 2695 ft 153 kts 150°
2026-04-21 20:10 26.32982 43.75864 2500 ft 153 kts 150°
2026-04-21 20:10 26.32038 43.76398 2292 ft 152 kts 149°
2026-04-21 20:10 26.31110 43.76940 2143 ft 144 kts 150°
2026-04-21 20:10 26.30375 43.77362 2141 ft 93 kts 153°
2026-04-21 20:11 26.29963 43.77597 2141 ft 45 kts 152°
2026-04-21 20:11 26.29756 43.77710 2141 ft 24 kts 162°
2026-04-21 20:11 26.29630 43.77721 2141 ft 18 kts 179°
2026-04-21 20:11 26.29503 43.77725 2141 ft 19 kts 178°
2026-04-21 20:12 26.29421 43.77684 2141 ft 8 kts 247°
2026-04-21 20:12 26.29458 43.77633 2141 ft 12 kts 333°
2026-04-21 20:12 26.29570 43.77568 2141 ft 24 kts 333°
2026-04-21 20:12 26.29744 43.77469 2141 ft 31 kts 333°
2026-04-21 20:13 26.29934 43.77360 2141 ft 29 kts 333°
2026-04-21 20:13 26.30114 43.77257 2141 ft 30 kts 332°
2026-04-21 20:13 26.30300 43.77151 2141 ft 31 kts 332°
2026-04-21 20:13 26.30430 43.77076 2141 ft 16 kts 332°
2026-04-21 20:14 26.30535 43.77015 2141 ft 18 kts 333°
2026-04-21 20:14 26.30633 43.76958 2141 ft 9 kts 331°
2026-04-21 20:14 26.30635 43.76903 2141 ft 8 kts 246°
2026-04-21 20:14 26.30624 43.76876 2141 ft 0 kts 246°